DW2047 Weather Reports


time (UTC)temp
C
wind
direction
speed
KPH
gust
KPH
rain 1hr
cm
rain 24hr
cm
rain mn
cm
humidity
%
barometer
mb
20260901054536 28 154 3.2 11.3 0.00 0.00 0.00 67 1015.1
20260901054011 28 152 3.2 12.9 0.00 0.00 0.00 67 1015.0
20260901053553 28 157 4.8 12.9 0.00 0.00 0.00 66 1015.0
20260901053124 28 142 3.2 9.7 0.00 0.00 0.00 66 1014.9
20260901052540 28 162 4.8 12.9 0.00 0.00 0.00 66 1014.9
20260901052016 28 148 6.4 12.9 0.00 0.00 0.00 65 1014.8
20260901051531 29 173 3.2 14.5 0.00 0.00 0.00 65 1014.8
20260901051003 29 145 6.4 14.5 0.00 0.00 0.00 65 1014.8
20260901050544 29 159 6.4 12.9 0.00 0.00 0.00 64 1014.8
20260901050058 29 175 6.4 12.9 0.00 0.00 0.00 64 1014.8
20260901045532 29 140 4.8 19.3 0.00 0.00 0.00 63 1014.8
20260901045009 29 138 6.4 12.9 0.00 0.00 0.00 63 1014.7
20260901044520 29 195 6.4 12.9 0.00 0.00 0.00 63 1014.7
20260901044101 29 150 4.8 12.9 0.00 0.00 0.00 63 1014.7
20260901043538 30 182 6.4 19.3 0.00 0.00 0.00 63 1014.7
20260901043049 30 142 4.8 19.3 0.00 0.00 0.00 63 1014.7
20260901042525 30 147 6.4 12.9 0.00 0.00 0.00 62 1014.6
20260901042002 30 175 3.2 14.5 0.00 0.00 0.00 62 1014.6
20260901041512 30 155 6.4 14.5 0.00 0.00 0.00 61 1014.6
20260901041053 30 163 6.4 22.5 0.00 0.00 0.00 61 1014.5
20260901040530 30 141 6.4 22.5 0.00 0.00 0.00 60 1014.6
20260901040041 30 154 6.4 19.3 0.00 0.00 0.00 60 1014.5
20260901035521 30 165 8.0 19.3 0.00 0.00 0.00 59 1014.6
20260901035058 30 170 8.0 19.3 0.00 0.00 0.00 59 1014.6
20260901034510 30 139 8.0 17.7 0.00 0.00 0.00 59 1014.5
20260901034043 29 150 6.4 16.1 0.00 0.00 0.00 59 1014.5
20260901033518 28 130 4.8 14.5 0.00 0.00 0.00 58 1014.5
20260901033029 28 154 3.2 9.7 0.00 0.00 0.00 57 1014.4
20260901032506 27 86 1.6 4.8 0.00 0.00 0.00 57 1014.3
20260901032047 27 86 1.6 4.8 0.00 0.00 0.00 58 1014.2
20260901031610 27 84 0.0 0.0 0.00 0.00 0.00 58 1014.2
20260901031034 27 84 0.0 0.0 0.00 0.00 0.00 59 1014.2
20260901030511 27 84 0.0 0.0 0.00 0.00 0.00 59 1014.1
20260901030024 27 84 0.0 0.0 0.00 0.00 0.00 58 1014.1
20260901025603 27 84 0.0 0.0 0.00 0.00 0.00 59 1013.9
20260901025040 27 84 0.0 0.0 0.00 0.00 0.00 59 1013.8
20260901024551 28 84 0.0 0.0 0.00 0.00 0.00 58 1013.8
20260901024029 28 84 0.0 0.0 0.00 0.00 0.00 57 1013.8
20260901023503 28 84 0.0 0.0 0.00 0.00 0.00 58 1013.7
20260901023014 28 84 0.0 0.0 0.00 0.00 0.00 57 1013.6
20260901022556 28 84 0.0 0.0 0.00 0.00 0.00 56 1013.5
20260901022034 29 84 0.0 0.0 0.00 0.00 0.00 55 1013.5
20260901021543 29 84 0.0 0.0 0.00 0.00 0.00 55 1013.4
20260901021020 30 84 0.0 0.0 0.00 0.00 0.00 53 1013.4
20260901020601 30 84 0.0 0.0 0.00 0.00 0.00 52 1013.3
20260901020008 30 84 0.0 0.0 0.00 0.00 0.00 51 1013.3
20260901015549 30 84 0.0 0.0 0.00 0.00 0.00 50 1013.2
20260901015025 31 84 0.0 0.0 0.00 0.00 0.00 49 1013.1
20260901014536 31 84 0.0 0.0 0.00 0.00 0.00 48 1013.0
20260901014015 31 84 0.0 0.0 0.00 0.00 0.00 46 1013.0
20260901013555 31 84 0.0 0.0 0.00 0.00 0.00 46 1013.0
20260901013001 32 84 0.0 0.0 0.00 0.00 0.00 44 1013.0
20260901012542 32 84 0.0 0.0 0.00 0.00 0.00 44 1013.0
20260901012022 32 84 0.0 1.6 0.00 0.00 0.00 43 1012.9
20260901011530 32 84 0.0 1.6 0.00 0.00 0.00 43 1012.9
20260901011009 33 84 0.0 3.2 0.00 0.00 0.00 42 1012.9
20260901010547 33 84 0.0 4.8 0.00 0.00 0.00 41 1012.9
20260901010058 33 84 0.0 6.4 0.00 0.00 0.00 41 1012.8
20260901005537 33 113 1.6 6.4 0.00 0.00 0.00 41 1012.8
20260901005013 33 134 1.6 6.4 0.00 0.00 0.00 40 1012.7
20260901004522 33 134 1.6 6.4 0.00 0.00 0.00 40 1012.8
20260901004107 34 86 1.6 14.5 0.00 0.00 0.00 40 1012.8
20260901003540 34 88 1.6 14.5 0.00 0.00 0.00 40 1012.9
20260901003052 34 126 1.6 6.4 0.00 0.00 0.00 40 1012.8
20260901002528 35 126 0.0 8.0 0.00 0.00 0.00 39 1012.7
20260901002007 35 126 3.2 12.9 0.00 0.00 0.00 39 1012.7
20260901001523 35 125 1.6 9.7 0.00 0.00 0.00 39 1012.7
20260901001056 35 125 1.6 6.4 0.00 0.00 0.00 38 1012.6
20260901000534 36 125 0.0 6.4 0.00 0.00 0.00 38 1012.5
20260901000044 36 125 0.0 6.4 0.00 0.00 0.00 38 1012.6
20260831235520 36 126 3.2 9.7 0.00 0.00 0.00 37 1012.6
20260831235101 36 117 1.6 6.4 0.00 0.00 0.00 38 1012.6
20260831234508 36 115 1.6 12.9 0.00 0.00 0.00 37 1012.6
20260831234049 36 67 1.6 12.9 0.00 0.00 0.00 37 1012.6
20260831233529 36 107 1.6 9.7 0.00 0.00 0.00 37 1012.6
20260831233037 36 67 4.8 9.7 0.00 0.00 0.00 37 1012.6
20260831232513 36 96 3.2 11.3 0.00 0.00 0.00 36 1012.7
20260831232055 36 132 3.2 9.7 0.00 0.00 0.00 36 1012.6
20260831231504 36 80 3.2 12.9 0.00 0.00 0.00 37 1012.6
20260831231047 36 121 3.2 12.9 0.00 0.00 0.00 37 1012.6
20260831230526 36 127 3.2 14.5 0.00 0.00 0.00 35 1012.7
20260831230053 37 136 4.8 11.3 0.00 0.00 0.00 36 1012.7
20260831225515 36 121 1.6 16.1 0.00 0.00 0.00 36 1012.7
20260831225103 37 132 6.4 16.1 0.00 0.00 0.00 34 1012.6
20260831224506 36 137 3.2 14.5 0.00 0.00 0.00 36 1012.7
20260831224048 36 142 4.8 14.5 0.00 0.00 0.00 35 1012.7
20260831223525 36 77 4.8 11.3 0.00 0.00 0.00 35 1012.8
20260831223036 36 135 3.2 14.5 0.00 0.00 0.00 36 1012.8
20260831222511 36 152 1.6 14.5 0.00 0.00 0.00 37 1012.9
20260831222053 36 144 1.6 14.5 0.00 0.00 0.00 37 1012.9
20260831221629 36 126 6.4 14.5 0.00 0.00 0.00 38 1012.9
20260831221040 36 132 9.7 16.1 0.00 0.00 0.00 36 1013.0
20260831220517 36 152 6.4 16.1 0.00 0.00 0.00 34 1013.0
20260831220030 36 78 3.2 14.5 0.00 0.00 0.00 37 1013.0
20260831215508 36 65 4.8 14.5 0.00 0.00 0.00 38 1013.1
20260831215046 36 154 4.8 12.9 0.00 0.00 0.00 37 1013.1
20260831214558 36 152 3.2 11.3 0.00 0.00 0.00 39 1013.2
20260831214033 36 139 3.2 14.5 0.00 0.00 0.00 39 1013.2
20260831213510 36 61 6.4 14.5 0.00 0.00 0.00 39 1013.3
20260831213021 36 130 3.2 11.3 0.00 0.00 0.00 40 1013.3
20260831212604 36 165 3.2 11.3 0.00 0.00 0.00 40 1013.3
20260831212039 35 69 1.6 12.9 0.00 0.00 0.00 42 1013.5
20260831211601 36 122 4.8 12.9 0.00 0.00 0.00 39 1013.5
20260831211026 36 133 4.8 16.1 0.00 0.00 0.00 38 1013.5
20260831210502 36 100 4.8 16.1 0.00 0.00 0.00 38 1013.6
20260831210013 36 93 4.8 14.5 0.00 0.00 0.00 38 1013.7
20260831205555 36 82 4.8 19.3 0.00 0.00 0.00 38 1013.8
20260831205032 36 114 8.0 19.3 0.00 0.00 0.00 39 1013.9
20260831204543 36 123 1.6 14.5 0.00 0.00 0.00 39 1014.0
20260831204019 36 105 4.8 16.1 0.00 0.00 0.00 39 1014.1
20260831203601 36 130 4.8 16.1 0.00 0.00 0.00 40 1014.2
20260831203009 36 137 4.8 17.7 0.00 0.00 0.00 39 1014.3
20260831202548 36 166 8.0 17.7 0.00 0.00 0.00 40 1014.4
20260831202025 35 132 9.7 19.3 0.00 0.00 0.00 42 1014.5
20260831201538 35 139 6.4 19.3 0.00 0.00 0.00 42 1014.5
20260831201016 36 136 6.4 16.1 0.00 0.00 0.00 40 1014.6
20260831200555 36 137 6.4 17.7 0.00 0.00 0.00 40 1014.6
20260831200001 36 153 4.8 16.1 0.00 0.00 0.00 41 1014.7
20260831195543 36 164 4.8 17.7 0.00 0.00 0.00 41 1014.7
20260831195020 36 146 8.0 19.3 0.00 0.00 0.00 40 1014.8
20260831194605 36 112 9.7 19.3 0.00 0.00 0.00 42 1014.9
20260831194012 36 145 3.2 14.5 0.00 0.00 0.00 43 1014.9
20260831193551 35 140 8.0 12.9 0.00 0.00 0.00 43 1014.9
20260831193108 35 134 4.8 19.3 0.00 0.00 0.00 44 1014.9
20260831192541 35 150 6.4 22.5 0.00 0.00 0.00 46 1015.0
20260831192019 35 162 6.4 20.9 0.00 0.00 0.00 44 1015.1
20260831191532 35 133 6.4 16.1 0.00 0.00 0.00 45 1015.2
20260831191011 35 132 6.4 16.1 0.00 0.00 0.00 46 1015.3
20260831190558 35 129 8.0 17.7 0.00 0.00 0.00 45 1015.3
20260831190004 35 71 6.4 19.3 0.00 0.00 0.00 46 1015.4
20260831185548 34 149 6.4 16.1 0.00 0.00 0.00 47 1015.5
20260831185025 34 159 9.7 16.1 0.00 0.00 0.00 46 1015.5
20260831184545 34 144 6.4 16.1 0.00 0.00 0.00 48 1015.5
20260831184015 35 148 4.8 16.1 0.00 0.00 0.00 46 1015.6
20260831183558 35 200 3.2 16.1 0.00 0.00 0.00 47 1015.7
20260831183005 34 142 4.8 19.3 0.00 0.00 0.00 45 1015.7
20260831182548 34 130 11.3 22.5 0.00 0.00 0.00 45 1015.7
20260831182026 34 155 4.8 16.1 0.00 0.00 0.00 46 1015.8
20260831181538 34 134 4.8 16.1 0.00 0.00 0.00 47 1015.8
20260831181015 34 128 3.2 16.1 0.00 0.00 0.00 47 1015.8
20260831180555 33 133 4.8 14.5 0.00 0.00 0.00 48 1016.0
20260831180002 33 160 6.4 17.7 0.00 0.00 0.00 47 1016.1
20260831175545 33 153 6.4 17.7 0.00 0.00 0.00 48 1016.2
20260831175021 33 90 3.2 17.7 0.00 0.00 0.00 50 1016.2
20260831174547 33 55 4.8 17.7 0.00 0.00 0.00 53 1016.3
20260831174013 33 136 6.4 17.7 0.00 0.00 0.00 53 1016.4
20260831173553 33 140 6.4 17.7 0.00 0.00 0.00 51 1016.5
20260831173008 33 140 8.0 19.3 0.00 0.00 0.00 51 1016.6
20260831172550 33 159 8.0 16.1 0.00 0.00 0.00 52 1016.6
20260831172027 32 153 6.4 16.1 0.00 0.00 0.00 53 1016.6
20260831171543 32 129 4.8 16.1 0.00 0.00 0.00 52 1016.7
20260831171014 32 186 1.6 9.7 0.00 0.00 0.00 56 1016.7
20260831170555 32 126 4.8 16.1 0.00 0.00 0.00 55 1016.8
20260831170002 32 147 8.0 16.1 0.00 0.00 0.00 55 1016.7
20260831165543 32 123 3.2 12.9 0.00 0.00 0.00 57 1016.8
20260831165020 32 132 3.2 17.7 0.00 0.00 0.00 57 1016.8
20260831164534 32 144 4.8 17.7 0.00 0.00 0.00 57 1016.8
20260831164008 31 136 4.8 11.3 0.00 0.00 0.00 58 1016.8
20260831163549 31 138 4.8 16.1 0.00 0.00 0.00 58 1016.8
20260831163101 31 159 3.2 16.1 0.00 0.00 0.00 61 1016.8
20260831162537 31 139 8.0 14.5 0.00 0.00 0.00 61 1016.8
20260831162015 31 126 6.4 16.1 0.00 0.00 0.00 63 1016.8
20260831161524 31 131 8.0 16.1 0.00 0.00 0.00 62 1016.9
20260831161002 31 138 4.8 14.5 0.00 0.00 0.00 64 1016.8
20260831160545 31 155 4.8 14.5 0.00 0.00 0.00 65 1016.8
20260831160053 30 200 3.2 11.3 0.00 0.00 0.00 66 1016.8
20260831155530 30 235 3.2 9.7 0.00 0.00 0.00 68 1016.8
20260831155007 30 158 3.2 8.0 0.00 0.00 0.00 68 1016.8
20260831154519 30 198 0.0 11.3 0.00 0.00 0.00 70 1016.8
20260831154100 30 199 1.6 11.3 0.00 0.00 0.00 70 1016.8
20260831153536 30 134 3.2 12.9 0.00 0.00 0.00 71 1016.8
20260831153047 29 199 3.2 16.1 0.00 0.00 0.00 71 1016.8
20260831152520 29 209 3.2 16.1 0.00 0.00 0.00 72 1016.8
20260831152101 29 138 6.4 14.5 0.00 0.00 0.00 72 1016.8
20260831151510 29 173 6.4 20.9 0.00 0.00 0.00 72 1016.7
20260831151052 28 140 8.0 20.9 0.00 0.00 0.00 73 1016.6
20260831150525 28 139 0.0 9.7 0.00 0.00 0.00 75 1016.6
20260831150036 28 144 3.2 12.9 0.00 0.00 0.00 75 1016.6
20260831145512 28 150 4.8 17.7 0.00 0.00 0.00 75 1016.6
20260831145055 28 162 4.8 17.7 0.00 0.00 0.00 75 1016.5
20260831144605 28 157 6.4 14.5 0.00 0.00 0.00 76 1016.5
20260831144041 28 140 8.0 16.1 0.00 0.00 0.00 77 1016.5
20260831143518 28 130 9.7 16.1 0.00 0.00 0.00 78 1016.4
20260831143031 28 159 3.2 12.9 0.00 0.00 0.00 79 1016.4
20260831142506 28 128 4.8 12.9 0.00 0.00 0.00 79 1016.4
20260831142046 27 176 3.2 11.3 0.00 0.00 0.00 80 1016.4
20260831141559 27 195 3.2 11.3 0.00 0.00 0.00 81 1016.3
20260831141034 27 193 1.6 11.3 0.00 0.00 0.00 82 1016.3
20260831140511 27 157 3.2 11.3 0.00 0.00 0.00 83 1016.3
20260831140026 27 209 3.2 11.3 0.00 0.00 0.00 84 1016.3
20260831135603 26 135 3.2 11.3 0.00 0.00 0.00 85 1016.2
20260831135040 26 271 1.6 6.4 0.00 0.00 0.00 86 1016.2
20260831134552 26 155 3.2 8.0 0.00 0.00 0.00 87 1016.1
20260831134027 26 158 1.6 11.3 0.00 0.00 0.00 88 1016.0
20260831133507 26 199 0.0 8.0 0.00 0.00 0.00 88 1016.1
20260831133014 25 150 1.6 8.0 0.00 0.00 0.00 88 1016.1
20260831132557 25 196 1.6 11.3 0.00 0.00 0.00 89 1016.0
20260831132032 25 136 1.6 11.3 0.00 0.00 0.00 89 1016.0
20260831131545 25 168 0.0 4.8 0.00 0.00 0.00 89 1015.9
20260831131021 25 155 3.2 4.8 0.00 0.00 0.00 89 1015.9
20260831130603 25 160 1.6 4.8 0.00 0.00 0.00 90 1015.8
20260831130008 25 160 0.0 1.6 0.00 0.00 0.00 90 1015.7
20260831125549 25 160 0.0 1.6 0.00 0.00 0.00 89 1015.7
20260831125023 25 160 0.0 0.0 0.00 0.00 0.00 89 1015.6
20260831124536 25 160 0.0 3.2 0.00 0.00 0.00 89 1015.5
20260831124011 25 160 0.0 3.2 0.00 0.00 0.00 89 1015.4
20260831123551 25 160 0.0 3.2 0.00 0.00 0.00 89 1015.5
20260831123102 25 160 0.0 3.2 0.00 0.00 0.00 89 1015.4
20260831122538 25 160 0.0 4.8 0.00 0.00 0.00 89 1015.4
20260831122015 25 160 0.0 4.8 0.00 0.00 0.00 89 1015.5
20260831121526 25 160 0.0 8.0 0.00 0.00 0.00 89 1015.5
20260831121003 25 160 0.0 4.8 0.00 0.00 0.00 89 1015.5
20260831120544 25 160 1.6 4.8 0.00 0.00 0.00 89 1015.5
20260831120055 25 146 0.0 6.4 0.00 0.00 0.00 88 1015.4
20260831115531 25 146 0.0 6.4 0.00 0.00 0.00 88 1015.4
20260831115008 25 145 0.0 6.4 0.00 0.00 0.00 88 1015.4
20260831114519 25 143 1.6 6.4 0.00 0.00 0.00 88 1015.3
20260831114100 25 134 1.6 6.4 0.00 0.00 0.00 88 1015.3
20260831113538 25 134 0.0 11.3 0.00 0.00 0.00 88 1015.4
20260831113057 25 134 3.2 11.3 0.00 0.00 0.00 87 1015.2
20260831112524 25 148 1.6 11.3 0.00 0.00 0.00 87 1015.2
20260831112002 25 165 3.2 11.3 0.00 0.00 0.00 87 1015.2
20260831111521 25 195 3.2 11.3 0.00 0.00 0.00 87 1015.2
20260831111053 25 136 3.2 14.5 0.00 0.00 0.00 87 1015.1
20260831110530 25 144 4.8 14.5 0.00 0.00 0.00 87 1015.1
20260831110041 25 153 4.8 14.5 0.00 0.00 0.00 87 1015.0
20260831105516 25 144 6.4 14.5 0.00 0.00 0.00 87 1015.0
20260831105058 25 146 3.2 8.0 0.00 0.00 0.00 87 1015.0
20260831104503 25 192 3.2 9.7 0.00 0.00 0.00 87 1015.0
20260831104045 25 202 3.2 9.7 0.00 0.00 0.00 88 1015.1
20260831103522 25 162 3.2 11.3 0.00 0.00 0.00 87 1015.0
20260831103053 25 162 3.2 14.5 0.00 0.00 0.00 87 1015.0
20260831102509 25 136 3.2 12.9 0.00 0.00 0.00 87 1015.0
20260831102050 25 215 4.8 8.0 0.00 0.00 0.00 87 1015.1
20260831101604 25 144 3.2 11.3 0.00 0.00 0.00 87 1015.2
20260831101038 25 144 4.8 12.9 0.00 0.00 0.00 87 1015.2
20260831100515 25 160 4.8 12.9 0.00 0.00 0.00 87 1015.3
20260831100035 25 177 3.2 14.5 0.00 0.00 0.00 86 1015.2
20260831095502 25 130 6.4 14.5 0.00 0.00 0.00 86 1015.1
20260831095043 25 188 1.6 9.7 0.00 0.00 0.00 86 1015.1
20260831094554 25 139 1.6 6.4 0.00 0.00 0.00 86 1015.1
20260831094031 25 153 0.0 8.0 0.00 0.00 0.00 86 1015.0
20260831093507 25 147 3.2 8.0 0.00 0.00 0.00 86 1015.0
20260831093019 25 218 3.2 14.5 0.00 0.00 0.00 85 1015.0
20260831092559 25 197 6.4 14.5 0.00 0.00 0.00 85 1015.0
20260831092035 26 157 4.8 12.9 0.00 0.00 0.00 85 1014.9
20260831091554 26 140 4.8 14.5 0.00 0.00 0.00 84 1015.0
20260831091023 26 153 4.8 14.5 0.00 0.00 0.00 84 1015.0
20260831090604 26 134 4.8 11.3 0.00 0.00 0.00 84 1014.9
20260831090011 26 143 1.6 12.9 0.00 0.00 0.00 83 1015.0
20260831085553 26 144 6.4 12.9 0.00 0.00 0.00 83 1015.1
20260831085028 26 165 4.8 14.5 0.00 0.00 0.00 82 1015.1
20260831084544 26 150 4.8 14.5 0.00 0.00 0.00 81 1015.0
20260831084016 26 265 8.0 14.5 0.00 0.00 0.00 80 1015.1
20260831083602 26 138 4.8 12.9 0.00 0.00 0.00 79 1015.2
20260831083010 26 135 4.8 11.3 0.00 0.00 0.00 79 1015.1
20260831082544 26 172 3.2 8.0 0.00 0.00 0.00 78 1015.1
20260831082021 26 146 4.8 12.9 0.00 0.00 0.00 78 1015.1
20260831081532 26 156 6.4 12.9 0.00 0.00 0.00 78 1015.0
20260831081011 26 184 4.8 8.0 0.00 0.00 0.00 78 1015.0
20260831080547 26 142 3.2 8.0 0.00 0.00 0.00 78 1015.0
20260831080106 26 144 3.2 8.0 0.00 0.00 0.00 77 1015.0
20260831075534 26 138 3.2 9.7 0.00 0.00 0.00 77 1015.0
20260831075010 27 158 3.2 8.0 0.00 0.00 0.00 76 1014.9
20260831074521 27 150 1.6 12.9 0.00 0.00 0.00 76 1015.0
20260831074102 27 169 4.8 12.9 0.00 0.00 0.00 75 1014.9
20260831073539 27 146 3.2 11.3 0.00 0.00 0.00 75 1014.9
20260831073051 27 153 3.2 11.3 0.00 0.00 0.00 75 1014.9
20260831072525 27 147 4.8 11.3 0.00 0.00 0.00 75 1015.0
20260831072002 27 147 3.2 11.3 0.00 0.00 0.00 75 1015.1
20260831071513 27 153 3.2 9.7 0.00 0.00 0.00 75 1015.1
20260831071055 27 159 3.2 8.0 0.00 0.00 0.00 74 1015.0
20260831070533 27 165 3.2 8.0 0.00 0.00 0.00 74 1015.0
20260831070043 27 169 3.2 11.3 0.00 0.00 0.00 74 1015.0
20260831065519 27 157 4.8 8.0 0.00 0.00 0.00 73 1014.9
20260831065101 27 143 3.2 8.0 0.00 0.00 0.00 73 1015.0
20260831064507 27 153 3.2 9.7 0.00 0.00 0.00 73 1015.0
20260831064047 27 151 1.6 11.3 0.00 0.00 0.00 72 1015.1
20260831063524 28 147 4.8 12.9 0.00 0.00 0.00 72 1015.1
20260831063035 28 169 4.8 12.9 0.00 0.00 0.00 71 1015.1
20260831062514 28 159 4.8 11.3 0.00 0.00 0.00 71 1015.2
20260831062057 28 161 4.8 12.9 0.00 0.00 0.00 70 1015.2
20260831061607 28 136 6.4 12.9 0.00 0.00 0.00 70 1015.2
20260831061041 28 141 4.8 12.9 0.00 0.00 0.00 69 1015.2
20260831060517 28 142 6.4 14.5 0.00 0.00 0.00 68 1015.2
20260831060028 28 142 6.4 14.5 0.00 0.00 0.00 68 1015.1
20260831055506 28 152 4.8 12.9 0.00 0.00 0.00 67 1015.0
20260831055047 28 157 6.4 12.9 0.00 0.00 0.00 67 1015.0